Regional Weather Roundup
Issued by NWS

Home | Current Version | Previous Version | Graphics & Text | Print | Product List | Glossary On
Versions: 1 2 3 4 5 6 7 8 9 10 11 12 13 14 15 16 17 18 19 20 21 22 23 24 25 26 27
000
ASUS45 KBOU 272310
RWRCO

WEATHER ROUNDUP FOR COLORADO
NATIONAL WEATHER SERVICE DENVER/BOULDER CO
500 PM MDT TUE SEP 27 2016

NOTE: "FAIR" INDICATES FEW OR NO CLOUDS BELOW 12000 FEET WITH NO
SIGNIFICANT WEATHER AND/OR OBSTRUCTIONS TO VISIBILITY.

COZ001>005-013-030-031-280000-
...NORTHWEST COLORADO...

CITY           SKY/WX    TMP DP  RH WIND       PRES   REMARKS
CRAIG          FAIR      76  27  16 VRB3      30.21F
HAYDEN         FAIR      73  28  19 W13       30.23F
MEEKER         FAIR      76  29  17 W10       30.22F
MOUNT WERNER   NOT AVBL
STEAMBOAT SPGS FAIR      74  27  17 W6        30.24S
WALDEN           N/A     70  19  14 SE3       30.32F
$$

COZ006>008-011-280000-
...WEST CENTRAL VALLEYS...

CITY           SKY/WX    TMP DP  RH WIND       PRES   REMARKS
GRAND JUNCTION FAIR      79  34  19 NW10      30.12F
MONTROSE       FAIR      77  34  21 NW6       30.18F
EAGLE          SUNNY     79  27  14 SW6       30.20F
RIFLE          FAIR      80  33  18 W14       30.13F
DELTA          FAIR      85  27  12 W13       30.12F
NUCLA          FAIR      79  30  17 NW7       30.22F
$$

COZ017>023-064>068-280000-
...SOUTHWEST COLORADO...

CITY           SKY/WX    TMP DP  RH WIND       PRES   REMARKS
DURANGO        FAIR      73  25  16 NW7G17    30.24F
CORTEZ         FAIR      76  34  21 S8        30.20F
PAGOSA SPRINGS FAIR      71  22  15 W10       30.30F
TELLURIDE      CLOUDY    66  33  29 W12G18    30.40S
WOLF CREEK PAS PTSUNNY   52  30  43 SW15G22   30.60S
$$

COZ009-010-012-014-032>034-037-058>063-280000-
...CENTRAL COLORADO...

CITY           SKY/WX    TMP DP  RH WIND       PRES   REMARKS
ASPEN          FAIR      74  26  16 N9        30.27F
BUENA VISTA    FAIR      75  21  13 S9        30.26S
COPPER MTN     FAIR      63  18  17 N3G18     30.59S
BERTHOUD PASS  FAIR      50  34  53 MISG      30.63S
COTTONWOOD PAS FAIR      70  18  13 SE12G18   30.41S
GUNNISON       FAIR      74  27  17 S6        30.26F
KREMMLING      FAIR      79   9   7 SW5       30.26S
LEADVILLE      FAIR      66  19  16 NW7       30.39F
MONARCH PASS   FAIR      57  25  28 SW12      30.68F
SALIDA         FAIR      77  22  12 S3        30.30F
SUNLIGHT       FAIR      59  28  31 NW5       30.54S
WILKERSON PASS FAIR      55  14  19 E7        30.56F
$$

COZ069>075-280000-
...SAN LUIS VALLEY/SANGRE DE CRISTO MOUNTAINS...

CITY           SKY/WX    TMP DP  RH WIND       PRES   REMARKS
ALAMOSA        FAIR      72  26  18 S7        30.27F
LA VETA PASS   FAIR      63  27  25 MISG      30.46F
SAGUACHE       NOT AVBL
$$

COZ035-036-038>040-280000-
...NORTHERN COLORADO FRONT RANGE...

CITY           SKY/WX    TMP DP  RH WIND       PRES   REMARKS
DENVER INTL AP FAIR      82  21  10 NE7       30.13F
DMNS CITY PARK   N/A     80  25  13 NE5       30.13S
AURORA         MOSUNNY   81  24  12 E5        30.15F
FRONT RANGE AP MOSUNNY   82  21  10 N7        30.15F
ERIE MUNI ARPT FAIR      81  20  10 CALM      30.12F
BOULDER MUN AP FAIR      81  30  16 SE3       30.13F
CENTENNIAL     FAIR      79  25  13 E6        30.16F
BROOMFIELD     MOSUNNY   81  25  12 NW6       30.17S
FORT COLLINS   FAIR      81  32  17 SW7       30.08F
LONGMONT       FAIR      83  31  14 CALM      30.13F
$$

COZ041-046-047-076>085-087-088-280000-
...PIKES PEAK/PALMER DIVIDE AND SOUTHERN FOOTHILLS...

CITY           SKY/WX    TMP DP  RH WIND       PRES   REMARKS
COLO. SPRINGS  FAIR      78  28  16 E8        30.19F
A. F. ACADEMY  FAIR      77  28  16 VRB6      30.20S
SCHRIEVER AFB  NOT AVBL
ELLICOTT       NOT AVBL
FALCON         FAIR      75  26  16 E3        30.24F
FORT CARSON    FAIR      79  28  15 E5        30.16F
LIMON          FAIR      83  23  11 N8        30.13S
MONUMENT HILL  FAIR      73  23  15 NE6       30.25F
TRINIDAD       FAIR      81  30  15 E12       30.14F
$$

COZ042>045-048>051-090-091-280000-
...NORTHEAST COLORADO...

CITY           SKY/WX    TMP DP  RH WIND       PRES   REMARKS
GREELEY ARPT   FAIR      81  30  16 S3        30.10F
AKRON          FAIR      81  24  12 CALM      30.09F
BURLINGTON     FAIR      83  29  14 SW7       30.06F
WRAY           NOT AVBL
STERLING       FAIR      84  34  16 S9        30.03F
HOLYOKE        FAIR      86  28  12 N5        30.03F
FORT MORGAN    FAIR      82  28  13 SE5       30.09F
$$

COZ086-089-092>099-280000-
...SOUTHEAST COLORADO...

CITY           SKY/WX    TMP DP  RH WIND       PRES   REMARKS
PUEBLO         FAIR      87  28  12 N5        30.07F
LA JUNTA       FAIR      86  32  14 E6        30.06F
LAMAR          FAIR      87  33  14 CALM      30.03F
SPRINGFIELD    NOT AVBL
$$




USA.gov is the U.S. government's official web portal to all federal, state and local government web resources and services.